WetterOnline ( https://www.wetteronline.de )

Wetter aktuell Herford

Aktuelles Wetter: Bad Salzuflen (139m)

6-stündlich | Neueste Meldungen
Ortszeit Temperatur Wetter
So, 28.02. 1:00 4.7° C wolkig
Sa, 27.02. 19:00 5.6° C Sprühregen
Sa, 27.02. 13:00 4.9° C bewölkt
Sa, 27.02. 7:00 2.4° C bedeckt
Sa, 27.02. 1:00 3.2° C wolkig
Fr, 26.02. 19:00 7.3° C bedeckt
Fr, 26.02. 13:00 8.8° C leicht bewölkt
Fr, 26.02. 7:00 6.0° C bedeckt
Ortszeit Temperatur Wetter
So, 28.02. 2:00 3.9° C wolkig
So, 28.02. 1:50 3.9° C wolkig
So, 28.02. 1:40 3.8° C wolkig
So, 28.02. 1:30 4.1° C fast wolkenlos
So, 28.02. 1:20 4.1° C fast wolkenlos
So, 28.02. 1:10 4.3° C leicht bewölkt
So, 28.02. 1:00 4.7° C wolkig
So, 28.02. 0:30 5.2° C bewölkt
So, 28.02. 0:00 5.2° C bedeckt
Sa, 27.02. 23:30 5.3° C bedeckt
Sa, 27.02. 23:00 5.3° C bedeckt
Ortszeit Relative Feuchte Sichtweite
So, 28.02. 1:00 93% 6 km
Sa, 27.02. 19:00 90% 15 km
Sa, 27.02. 13:00 85% 35 km
Sa, 27.02. 7:00 91% 15 km
Sa, 27.02. 1:00 92% 14 km
Fr, 26.02. 19:00 66% 35 km
Fr, 26.02. 13:00 58% 45 km
Fr, 26.02. 7:00 90% 14 km
Ortszeit Relative Feuchte Sichtweite
So, 28.02. 2:00 95% 4.4 km
So, 28.02. 1:50 95% -
So, 28.02. 1:40 95% -
So, 28.02. 1:30 94% 5.0 km
So, 28.02. 1:20 94% -
So, 28.02. 1:10 94% -
So, 28.02. 1:00 93% 6 km
So, 28.02. 0:30 90% 8 km
So, 28.02. 0:00 91% 9 km
Sa, 27.02. 23:30 91% 10 km
Sa, 27.02. 23:00 91% 10 km
Ortszeit Niederschlagsmenge Niederschlagsart
So, 28.02. 1:00 0.1 l/m2 in 6 Std. Sprühregen
Sa, 27.02. 19:00 0.1 l/m2 in 12 Std. Sprühregen
Sa, 27.02. 13:00 0.1 l/m2 in 6 Std. Sprühregen
Sa, 27.02. 7:00 0.0 l/m2 in 12 Std. -
Sa, 27.02. 1:00 0.0 l/m2 in 6 Std. -
Fr, 26.02. 19:00 0.5 l/m2 in 12 Std. -
Fr, 26.02. 13:00 0.5 l/m2 in 6 Std. Regen
Fr, 26.02. 7:00 5 l/m2 in 12 Std. Regen
Ortszeit Niederschlagsmenge Niederschlagsart
So, 28.02. 2:00 0.0 l/m2 in 1 Std. -
So, 28.02. 1:50 keine Meldung -
So, 28.02. 1:40 keine Meldung -
So, 28.02. 1:30 0.0 l/m2 in 1 Std. -
So, 28.02. 1:20 keine Meldung -
So, 28.02. 1:10 keine Meldung -
So, 28.02. 1:00 0.0 l/m2 in 1 Std. Sprühregen
So, 28.02. 0:30 0.0 l/m2 in 1 Std. -
So, 28.02. 0:00 0.0 l/m2 in 1 Std. -
Sa, 27.02. 23:30 0.0 l/m2 in 1 Std. -
Sa, 27.02. 23:00 0.0 l/m2 in 1 Std. -
Ortszeit Stärke Spitze Richtung
km/h Bft. km/h Grad Sektor
So, 28.02. 1:00 4 1 7 180° S
Sa, 27.02. 19:00 4 1 14 170° S
Sa, 27.02. 13:00 7 2 18 290° W
Sa, 27.02. 7:00 6 1 17 290° W
Sa, 27.02. 1:00 7 2 19 330° NW
Fr, 26.02. 19:00 6 1 28 320° NW
Fr, 26.02. 13:00 14 3 25 340° N
Fr, 26.02. 7:00 7 2 29 310° NW
Ortszeit Stärke Spitze Richtung
km/h Bft. km/h Grad Sektor
So, 28.02. 2:00 0 0 4 - -
So, 28.02. 1:50 0 0 - 340° N
So, 28.02. 1:40 0 0 - 350° N
So, 28.02. 1:30 2 1 4 210° SW
So, 28.02. 1:20 2 1 - 210° SW
So, 28.02. 1:10 2 1 - 210° SW
So, 28.02. 1:00 4 1 7 180° S
So, 28.02. 0:30 4 1 7 190° S
So, 28.02. 0:00 4 1 4 200° S
Sa, 27.02. 23:30 2 1 2 180° S
Sa, 27.02. 23:00 0 0 7 - -
Ortszeit Untergrenze Bedeckung Gattung
total tief tief mittel hoch
So, 28.02. 1:00 750 m 6/8 6/8 - - -
Sa, 27.02. 19:00 540 m 8/8 8/8 - - -
Sa, 27.02. 13:00 210 m 7/8 7/8 - - -
Sa, 27.02. 7:00 120 m 8/8 8/8 - - -
Sa, 27.02. 1:00 120 m 6/8 6/8 - - -
Fr, 26.02. 19:00 1500 m 8/8 8/8 - - -
Fr, 26.02. 13:00 780 m 4/8 4/8 - - -
Fr, 26.02. 7:00 1410 m 8/8 8/8 - - -
Ortszeit Bedeckungsgrad in Achtel und Wolkenuntergrenze
So, 28.02. 2:00 6(720m)
So, 28.02. 1:50 6(720m)
So, 28.02. 1:40 6(690m)
So, 28.02. 1:30 1(720m)
So, 28.02. 1:20 1(720m)
So, 28.02. 1:10 2(750m)
So, 28.02. 1:00 6(750m)
So, 28.02. 0:30 1(360m) 7(690m)
So, 28.02. 0:00 4(330m) 8(570m)
Sa, 27.02. 23:30 4(420m) 8(660m) 8(660m)
Sa, 27.02. 23:00 4(360m) 5(600m) 8(750m)
Ortszeit Luftdruck NN (hPa) Tendenz (hPa in 3 Std.)
So, 28.02. 1:00 1040 - 0,1
Sa, 27.02. 19:00 1040 + 0,2
Sa, 27.02. 13:00 1041 + 0,7
Sa, 27.02. 7:00 1039 + 0,8
Sa, 27.02. 1:00 1037 + 1,5
Fr, 26.02. 19:00 1034 + 1,3
Fr, 26.02. 13:00 1033 + 0,3
Fr, 26.02. 7:00 1031 + 1,0
Ortszeit Luftdruck NN (hPa) Tendenz (hPa in 3 Std.)
So, 28.02. 2:00 1040 - 0,3
So, 28.02. 1:50 1040 keine Meldung
So, 28.02. 1:40 1040 keine Meldung
So, 28.02. 1:30 1040 - 0,2
So, 28.02. 1:20 1040 keine Meldung
So, 28.02. 1:10 1040 keine Meldung
So, 28.02. 1:00 1040 - 0,1
So, 28.02. 0:30 1040 0,0
So, 28.02. 0:00 1040 + 0,1
Sa, 27.02. 23:30 1040 + 0,2
Sa, 27.02. 23:00 1040 + 0,2
Ortszeit Schneehöhe (cm)
So, 28.02. 1:00 0
Sa, 27.02. 19:00 0
Sa, 27.02. 13:00 0
Sa, 27.02. 7:00 0
Sa, 27.02. 1:00 0
Fr, 26.02. 19:00 0
Fr, 26.02. 13:00 0
Fr, 26.02. 7:00 0
Ortszeit Schneehöhe (cm)
So, 28.02. 2:00 0
So, 28.02. 1:50 0
So, 28.02. 1:40 0
So, 28.02. 1:30 0
So, 28.02. 1:20 0
So, 28.02. 1:10 0
So, 28.02. 1:00 0
So, 28.02. 0:30 0
So, 28.02. 0:00 0
Sa, 27.02. 23:30 0
Sa, 27.02. 23:00 0
Link zu dieser Seite / Seite empfehlen

Das Wetter in ...